Showing default

CANX-5, 40056

Orbit data source: Space-Track

CANX-5, 40056 is a payload satellite owned by UTIAS-SFL (CA) in SSO that was launched on Mon, 30 Jun 2014 UTC via a PSLV launch vehicle from the Sirharikota (SRI). Payload-class satellites include a variety of spacecraft equipped with specific instruments for various scientific and technological missions. These include communications satellites like Starlink; space stations such as the ISS; scientific satellites like the Hubble; Earth observation satellites from companies like Planet Labs, Umbra, and HawkEye 360; GPS; miniature CubeSats for education and research; and military/defense satellites.

Loading next visibility...
Identifier
40056, 2014-034D
Orbit
SSO
Last TLE update
4 hours ago
Origin
Manufacturer
UTIAS-SFL
Mission
Operational Amateur Technology
Bus & Motor
GNB, Unknown motor
Mass
7 kg wet, 7 kg dry
Launch date (UTC)
2014-06-30 (11 years ago)
Launch vehicle
PSLV
Launch site
Sirharikota (SRI)
Object type
Payload
Rocket body
Debris
Shape & HBR
Box + 4 Ant, 0.2 m
Radar Cross Section
0.060 m², Medium (>0.1 m² and < 1m²)

Expand to show TLE details & history

TLE from 4 hours ago
0 CANX-5
1 40056U 14034D   25129.52422204  .00001281  00000-0  17610-3 0  9997
2 40056  98.3667 343.9870 0012061 223.0591 136.9677 14.80159164584827
Epoch: 2025-05-09T12:34Z
Definitive object data (Epoch: 2025-05-09T12:34:52.784Z)
Latitude
Longitude
-72.31206°
Altitude
638.013 km
Speed
7.536 km/s
True Right ascension
22h 55m 56s
True Declination
0° 00' 00"
Sunlit
Object was in daylight at TLE epoch
Visualization TLE readout
Latitude
-6.48876°
Longitude
106.91196°
Altitude
626.068 km
Speed
7.549 km/s
Apparent Right ascension
11h 41m 13s
Apparent Declination
-22° 55' 55"
Sunlit
Object is in full shadow
Visualization observer readout
Local Sidereal Time
00:50:30
Azimuth
45.94° ENE
Elevation
-67.572°
Doppler factor
1
Orbital elements
Apogee altitude
634.331 km
Perigee altitude
617.436 km
Semi-major axis
7,004.021 km
Eccentricity
0.0012061
Inclination
98.3667°
RAAN
343.987°
Arg. of periapsis
223.0591°
True anomaly
137.06191°
Mean anomaly
136.9677°
Eccentric anomaly
137.01482°
Mean motion
3.70273 °/min
BSTAR
0.0001761
Orbital period
97.23 mins
Loading maneuver chart data...
Loading SW <> Apogee altitude chart data...
Loading historical data...
Loading historical data...
Loading historical data...
Loading historical data...
Loading historical data...
Loading historical data...
Loading historical data...
Other satellites on launch #34 in the year 2014 (2014-06-30 UTC)

CANX-5 Visibility forecast

Observer location: undefined°, undefined°

Span
Click to sort rows by Start time (UTC) header in descending order
Start Az.
Max El. time (UTC)
Max El. Az.
Max El.
End time (UTC)
End Az.
5 mins2025-05-10 02:08:59.270Z50.659° ENE2025-05-10 02:11:59.270Z95.289° ESE17.37°2025-05-10 02:13:59.270Z127.475° SE
6 mins2025-05-10 03:45:59.270Z342.669° N2025-05-10 03:47:59.270Z298.4° NW30.991°2025-05-10 03:51:59.270Z223.567° SW
7 mins2025-05-10 14:39:59.270Z191.797° SSW2025-05-10 14:42:59.270Z256.668° W36.041°2025-05-10 14:46:59.270Z333.204° NNW
|